Temp
11 11 11 11 11 11 11 11 11 11 11 11 11 11 11 11 11 11 11 10 10 10 10 11 11 11 12 12 12 12 12 12 12 12 12 12 12 13 13 12 12 12 12 12 12 12 12 12 11 11 11 11 11 11 11 11 11 12 12 12 12 12 12 12 12 12 13 13 13
11 11 11 11 11 11 11 11 11 11 11 11 11 11 11 11 11 11 10 10 10 10 10 11 11 11 11 12 12 12 12 12 12 12 12 12 12 12 12 12 12 12 12 12 12 12 11 11 11 11 11 11 11 11 11 11 11 11 11 11 12 12 12 12 12 12 12 12 13
11 11 11 11 11 11 11 11 11 11 11 11 11 11 11 11 11 11 11 10 10 10 11 11 11 11 11 12 12 12 12 12 12 11 11 11 11 12 12 12 12 12 12 11 11 11 11 11 11 11 11 11 11 11 11 11 11 11 11 11 11 12 12 12 12 12 12 12 12
11 11 11 11 11 11 11 11 11 11 11 11 11 11 11 11 11 11 11 11 11 11 11 11 11 11 11 12 12 12 12 12 12 11 11 11 11 11 11 11 11 11 11 11 11 11 11 11 11 11 11 11 11 11 11 11 11 11 11 11 12 12 12 12 12 12 11 11 11
11 11 11 11 11 11 11 11 11 11 11 11 11 11 11 11 11 11 11 11 11 11 11 11 11 11 11 11 11 11 11 11 11 12 12 11 11 11 11 11 11 11 11 11 11 11 11 11 11 11 11 11 11 11 11 11 11 11 11 11 12 12 12 12 12 11 11 11 11
10 11 11 11 11 11 11 11 11 11 11 11 11 11 11 11 11 11 11 11 11 11 11 11 11 11 11 11 11 11 11 11 11 11 11 11 11 11 11 11 11 11 11 11 12 12 11 11 11 11 11 11 11 11 11 11 11 11 11 11 12 12 12 12 11 11 11 11 11
10 10 10 10 11 10 10 10 10 10 10 10 10 10 10 10 10 10 10 10 10 10 10 11 11 11 12 12 11 11 11 10 11 11 11 11 11 11 11 11 11 11 11 11 12 12 12 11 11 11 11 11 11 11 11 12 12 12 12 12 12 12 12 11 11 11 11 12 12
9 10 10 10 10 10 10 10 10 10 10 10 10 10 10 10 10 10 10 10 10 10 10 11 11 12 12 11 11 11 10 10 10 11 11 12 12 12 11 11 11 11 11 11 11 11 11 11 11 11 11 11 11 11 12 12 12 12 12 12 12 12 12 12 12 12 12 12 12
9 9 9 10 10 10 10 10 10 10 10 10 10 10 10 10 10 10 10 10 10 10 10 11 11 11 11 11 11 10 10 11 11 11 12 12 12 12 11 11 11 11 11 11 11 11 11 11 11 11 11 11 11 11 11 12 11 11 11 11 11 11 11 11 12 12 12 12 12
8 9 9 9 10 10 10 10 10 10 10 10 10 10 10 10 10 10 10 10 10 10 10 10 11 11 10 10 10 10 10 11 11 11 11 11 11 11 11 11 11 11 11 11 11 11 11 11 11 11 11 11 11 11 11 11 11 11 11 10 10 10 11 11 11 11 11 11 11
8 8 8 9 9 9 10 10 10 10 10 10 10 10 10 10 10 10 10 10 10 10 10 10 10 10 10 10 10 10 10 10 10 11 11 11 10 10 10 10 10 10 10 10 11 11 11 10 10 10 10 11 11 11 11 11 11 10 10 10 10 10 10 10 10 11 11 11 11
8 8 8 8 8 9 9 9 10 10 10 10 10 10 10 10 10 10 10 10 10 10 10 10 10 10 10 10 10 10 10 10 10 10 10 10 10 10 10 10 10 10 10 10 10 10 10 10 10 10 10 10 10 10 10 10 10 10 10 10 10 10 10 10 10 10 10 10 10
8 8 8 8 8 8 8 9 9 9 9 9 9 9 9 9 9 10 10 10 10 10 10 10 10 10 10 10 10 10 10 10 10 10 10 10 10 10 10 10 10 10 10 10 10 10 10 10 10 10 10 10 10 10 10 10 10 10 10 10 10 10 10 10 10 10 10 10 10
7 7 8 8 8 8 8 8 8 8 8 8 8 8 9 9 9 9 9 9 9 9 9 9 9 10 10 10 10 10 10 10 10 10 10 10 10 10 10 10 10 10 10 10 10 10 10 10 10 10 10 10 10 10 9 9 9 9 9 9 9 10 10 10 10 10 10 10 10
7 7 7 7 8 8 8 8 8 8 8 8 8 8 8 8 9 9 9 9 9 9 9 9 9 9 9 9 10 10 10 10 10 10 10 10 10 10 10 10 10 10 10 10 10 10 10 9 9 9 9 9 9 9 9 9 9 9 9 9 9 9 9 9 9 9 9 9 9
7 7 7 7 7 8 8 8 8 8 8 9 9 9 9 9 9 9 9 9 9 9 9 9 9 9 9 9 9 9 9 10 10 10 10 10 10 10 10 10 10 10 9 9 9 9 9 9 9 9 9 9 9 9 9 9 9 9 9 9 9 9 9 9 9 9 9 9 9
7 7 7 7 8 8 8 8 9 9 9 9 9 9 9 9 9 9 9 9 9 9 9 9 9 9 9 9 9 9 9 9 9 9 9 9 9 9 9 9 9 9 9 9 9 9 9 9 9 9 9 9 9 8 8 8 8 9 9 9 9 9 9 9 9 9 9 9 9
7 7 8 8 8 8 8 8 9 9 9 9 9 9 9 9 9 9 9 9 9 9 9 9 9 9 9 9 9 9 9 9 9 9 9 9 9 9 9 9 9 9 9 9 9 9 9 9 9 9 9 9 9 9 8 8 8 9 9 9 9 9 9 9 9 9 9 9 9
8 8 8 8 8 8 8 8 8 8 8 9 9 9 9 9 9 9 9 9 9 9 9 8 8 8 8 8 9 9 9 9 9 9 9 9 9 9 9 9 9 9 9 9 9 9 9 9 9 9 9 9 9 9 9 9 9 9 9 9 9 9 9 9 9 9 9 9 9
8 8 8 8 8 8 8 8 8 8 8 8 8 8 8 9 9 9 9 9 9 9 9 9 9 8 8 8 8 8 9 9 9 9 9 9 9 9 9 9 9 9 9 9 9 9 9 9 9 9 9 9 9 9 9 9 9 9 9 9 9 9 9 9 9 9 9 9 9
7 7 7 7 7 7 7 7 7 7 8 8 8 8 8 8 8 8 8 9 9 9 9 9 9 9 9 8 8 8 8 8 9 9 9 9 9 9 9 9 9 9 9 9 9 9 9 9 9 9 9 9 9 9 9 9 9 9 8 8 9 9 9 9 9 9 9 9 8
7 7 7 7 7 7 7 7 7 7 7 7 8 8 8 8 8 8 8 8 8 8 8 8 8 9 9 9 9 8 8 8 9 9 9 9 9 9 9 9 9 9 9 9 9 9 9 9 9 9 9 9 9 9 9 9 9 9 8 8 8 9 9 9 9 9 9 9 9
7 7 7 7 7 7 7 7 7 7 7 7 7 8 8 8 8 8 8 8 8 8 8 8 8 8 8 8 8 8 9 9 9 9 9 9 9 9 9 9 9 9 9 9 9 9 9 9 8 8 8 9 9 9 8 8 8 8 9 9 8 8 8 9 9 9 9 9 9
6 7 7 7 7 7 7 7 7 7 7 7 7 7 7 7 7 8 8 8 8 8 8 8 8 8 8 8 8 8 8 9 9 9 9 9 9 9 9 9 9 9 9 9 9 9 9 9 9 8 9 9 9 9 9 8 8 8 8 8 8 8 9 9 9 9 9 9 9
6 6 6 7 7 7 7 7 7 7 7 7 7 7 7 7 7 7 7 7 8 8 8 8 8 8 8 8 8 8 8 8 8 8 9 9 9 9 9 9 9 9 9 9 9 9 9 9 8 8 8 9 9 9 9 9 8 8 8 8 8 8 9 9 9 9 9 9 9
6 6 6 6 6 6 7 7 7 7 7 7 7 7 7 7 7 7 7 7 7 7 7 7 8 8 8 8 8 8 8 8 8 8 8 8 8 8 8 8 8 8 8 8 8 8 8 8 8 8 8 8 8 8 8 8 9 9 9 9 9 9 9 9 9 9 9 10 10
6 6 6 6 6 6 6 7 7 7 7 7 7 7 7 7 7 7 7 7 7 7 7 7 7 7 7 8 8 8 8 8 8 8 8 8 8 8 8 8 8 8 8 8 8 8 8 8 8 8 8 8 8 8 8 8 8 8 8 8 8 9 9 9 9 9 9 9 9
6 6 6 6 6 6 6 6 6 7 7 7 7 7 7 7 7 7 7 7 7 7 7 7 7 7 7 7 7 7 8 8 8 8 8 8 8 8 8 8 8 8 8 8 8 8 8 8 8 8 8 8 8 8 8 8 8 8 8 8 8 8 8 8 9 9 9 9 9
5 5 5 5 5 6 6 6 6 6 6 6 6 6 6 6 7 7 7 7 7 7 7 7 7 7 7 7 7 7 7 7 7 7 7 7 8 8 8 8 8 8 8 8 8 8 8 8 8 8 8 8 8 8 8 8 8 8 8 8 8 8 8 8 8 8 9 9 9
4 5 5 5 5 5 5 5 5 5 6 6 6 6 6 6 6 6 6 7 7 7 7 7 7 7 7 7 7 7 7 7 7 7 7 7 7 7 7 7 7 7 7 7 7 7 8 8 8 8 8 8 8 8 8 8 8 8 8 8 8 9 9 9 9 9 9 9 9
4 4 4 4 5 5 5 5 5 5 5 5 5 5 5 5 6 6 6 6 6 6 6 6 6 6 6 6 6 7 7 7 7 7 7 7 7 7 7 7 7 7 7 7 7 7 7 7 7 7 7 7 8 8 8 8 8 8 8 8 8 8 9 9 9 9 9 9 8
4 4 4 4 4 4 4 4 4 4 4 5 5 5 5 5 5 5 5 5 5 5 6 6 6 6 6 6 6 6 6 6 6 6 6 6 6 6 6 7 7 7 7 7 7 7 6 7 7 7 7 7 7 7 7 7 7 8 8 8 8 8 8 9 9 9 9 9 8
4 4 4 4 4 4 4 4 4 4 4 4 4 4 4 4 4 5 5 5 5 5 5 5 5 5 5 5 6 6 6 6 6 6 6 6 6 6 6 6 6 6 6 6 6 6 6 6 6 6 6 6 6 7 7 7 7 7 7 7 8 8 8 8 8 9 9 8 8
4 4 4 4 4 4 4 4 4 4 4 4 4 4 4 4 4 4 4 4 4 4 4 4 5 5 5 5 5 5 5 5 5 5 5 5 5 5 5 6 6 6 6 5 5 5 5 6 6 6 6 6 6 6 6 6 7 7 7 7 7 7 7 8 8 8 8 8 7
4 4 4 4 4 4 4 4 4 4 4 4 3 3 3 3 3 3 3 3 3 3 4 4 4 4 4 4 4 4 4 4 5 4 4 4 4 5 5 5 5 5 5 5 5 5 5 5 5 5 5 5 5 5 6 6 6 6 7 7 7 7 7 7 7 7 8 8 7
3 3 3 3 3 3 3 3 3 3 3 3 3 3 3 3 3 3 3 3 3 3 3 3 3 3 3 3 3 3 4 4 4 4 4 4 4 4 4 4 5 5 5 5 5 5 5 5 5 4 4 5 5 5 5 5 6 6 6 6 7 7 7 7 7 7 7 7 7
2 2 2 2 2 2 2 2 2 2 2 2 2 2 2 2 2 2 2 2 2 2 2 2 2 2 2 2 2 2 2 3 3 3 3 3 3 3 4 4 4 4 4 4 4 4 4 4 4 4 4 4 4 4 5 5 5 5 5 6 6 6 7 7 7 7 7 7 7
1 1 1 1 1 1 1 1 1 1 1 1 1 1 1 1 1 1 1 1 1 1 1 1 1 1 1 1 1 2 2 2 2 2 2 2 2 3 3 3 4 4 4 3 3 3 3 4 4 4 4 4 4 4 4 4 4 5 5 5 5 6 6 6 7 7 7 7 7
-0 -0 0 0 0 1 1 1 1 1 1 1 1 1 1 1 1 1 1 0 0 1 1 1 1 1 1 1 1 1 1 1 1 1 1 1 2 2 2 2 3 3 3 3 3 3 3 3 3 3 3 3 3 3 3 4 4 4 4 4 5 5 5 6 6 6 6 7 6
-1 -0 -0 -0 0 0 0 0 0 0 0 1 1 1 1 1 1 1 1 1 1 1 1 1 1 1 0 0 0 1 1 1 1 1 1 1 1 1 1 2 2 2 3 3 3 3 3 2 2 2 2 2 2 3 3 3 3 3 4 4 4 4 5 5 5 6 6 6 6
-1 -1 -1 -1 -0 -0 -0 -0 -0 -0 -0 -0 0 0 0 0 0 0 0 1 1 1 1 1 1 1 1 0 0 0 1 1 0 0 0 0 0 0 0 1 1 1 2 2 2 2 2 2 2 2 2 2 2 2 2 2 2 3 3 3 3 3 4 4 5 5 5 6 6
Height
1423 1424 1425 1426 1426 1427 1428 1429 1431 1431 1431 1432 1432 1433 1433 1434 1435 1437 1438 1440 1441 1442 1443 1444 1445 1446 1447 1448 1449 1450 1451 1453 1454 1456 1457 1458 1459 1460 1461 1462 1463 1464 1465 1466 1467 1468 1469 1470 1470 1471 1472 1473 1474 1475 1476 1478 1479 1480 1481 1482 1484 1485 1486 1486 1486 1487 1487 1488 1488
1422 1423 1424 1425 1426 1426 1427 1428 1429 1430 1431 1431 1432 1433 1433 1433 1434 1435 1437 1438 1440 1441 1442 1443 1444 1445 1446 1447 1448 1449 1451 1452 1453 1455 1456 1458 1459 1460 1461 1462 1463 1464 1465 1466 1466 1467 1467 1468 1469 1470 1471 1472 1473 1474 1475 1476 1477 1478 1479 1481 1482 1483 1483 1484 1484 1485 1486 1486 1487
1422 1423 1424 1425 1425 1426 1426 1427 1428 1429 1430 1431 1431 1432 1432 1433 1433 1434 1435 1437 1438 1440 1441 1442 1442 1443 1444 1446 1447 1449 1450 1451 1452 1454 1455 1457 1458 1459 1460 1461 1462 1463 1464 1465 1465 1466 1466 1467 1468 1468 1470 1471 1472 1473 1474 1475 1476 1477 1478 1479 1481 1482 1482 1482 1482 1483 1484 1485 1485
1422 1423 1423 1424 1424 1425 1426 1427 1428 1429 1429 1430 1431 1431 1431 1432 1432 1433 1434 1435 1437 1438 1439 1440 1441 1442 1443 1445 1447 1448 1450 1451 1452 1453 1454 1456 1457 1458 1459 1460 1461 1462 1463 1463 1464 1464 1465 1466 1466 1467 1468 1469 1471 1472 1473 1474 1475 1476 1477 1478 1479 1480 1480 1480 1481 1482 1482 1483 1483
1422 1422 1423 1423 1424 1425 1426 1427 1428 1429 1429 1430 1430 1431 1431 1431 1431 1432 1433 1434 1435 1436 1437 1438 1439 1441 1443 1445 1447 1448 1450 1451 1452 1453 1453 1455 1456 1457 1458 1459 1460 1461 1462 1462 1463 1463 1464 1464 1465 1466 1467 1468 1469 1470 1471 1472 1473 1475 1476 1476 1477 1478 1478 1479 1479 1480 1480 1480 1481
1422 1423 1423 1423 1424 1425 1426 1427 1428 1429 1429 1430 1430 1431 1431 1431 1431 1431 1431 1432 1432 1434 1435 1436 1437 1439 1442 1444 1446 1448 1449 1450 1451 1452 1453 1454 1455 1456 1457 1458 1459 1460 1461 1461 1462 1462 1462 1463 1463 1464 1466 1467 1468 1468 1470 1471 1472 1473 1473 1474 1475 1475 1476 1476 1477 1478 1478 1478 1478
1422 1423 1423 1424 1424 1425 1426 1426 1427 1428 1428 1429 1430 1431 1431 1432 1432 1431 1431 1431 1432 1433 1434 1435 1436 1438 1441 1443 1445 1446 1447 1448 1449 1450 1451 1453 1454 1456 1456 1457 1458 1459 1459 1460 1460 1460 1461 1461 1462 1463 1464 1465 1466 1467 1468 1469 1469 1470 1471 1471 1472 1473 1473 1474 1474 1475 1475 1476 1476
1422 1423 1424 1424 1425 1425 1426 1426 1427 1427 1428 1429 1430 1431 1432 1433 1433 1434 1434 1434 1434 1434 1434 1434 1436 1439 1441 1443 1444 1445 1446 1446 1447 1449 1450 1452 1453 1454 1455 1456 1457 1457 1458 1458 1458 1459 1459 1460 1460 1461 1463 1463 1464 1465 1466 1467 1467 1467 1467 1468 1469 1469 1470 1470 1471 1472 1473 1473 1473
1423 1424 1424 1425 1425 1426 1426 1426 1427 1428 1429 1430 1431 1431 1432 1432 1433 1433 1434 1434 1434 1434 1434 1435 1437 1439 1441 1442 1443 1443 1444 1446 1446 1448 1449 1451 1452 1453 1453 1454 1454 1455 1456 1456 1456 1457 1457 1458 1459 1460 1461 1461 1462 1463 1464 1464 1464 1464 1464 1465 1466 1466 1467 1467 1468 1469 1470 1470 1470
1423 1424 1425 1425 1426 1426 1427 1427 1428 1429 1430 1431 1432 1433 1433 1433 1433 1433 1433 1433 1433 1433 1434 1436 1438 1439 1440 1441 1442 1443 1444 1445 1446 1447 1448 1450 1450 1451 1451 1452 1452 1453 1453 1453 1454 1454 1455 1456 1457 1457 1458 1459 1459 1460 1461 1461 1462 1462 1462 1463 1463 1464 1464 1465 1466 1466 1467 1467 1467
1425 1425 1426 1426 1426 1427 1428 1429 1430 1431 1432 1433 1434 1434 1434 1434 1434 1433 1433 1433 1433 1433 1434 1436 1438 1439 1440 1441 1442 1443 1444 1444 1445 1446 1447 1448 1448 1449 1450 1450 1451 1451 1451 1451 1451 1452 1453 1453 1454 1455 1456 1456 1456 1457 1458 1458 1459 1460 1460 1461 1461 1462 1462 1463 1463 1463 1464 1464 1464
1426 1426 1426 1427 1427 1428 1430 1431 1432 1433 1434 1434 1434 1434 1434 1434 1433 1433 1433 1433 1433 1433 1435 1436 1437 1438 1439 1441 1441 1442 1443 1444 1445 1446 1446 1447 1448 1448 1449 1449 1449 1449 1449 1450 1450 1451 1451 1452 1453 1453 1453 1453 1454 1455 1456 1456 1457 1457 1458 1458 1459 1459 1460 1460 1461 1461 1461 1462 1462
1428 1428 1428 1428 1429 1430 1432 1433 1433 1434 1434 1434 1434 1433 1433 1433 1432 1432 1431 1432 1432 1433 1434 1435 1436 1437 1438 1440 1441 1442 1443 1443 1444 1445 1446 1446 1447 1447 1448 1448 1448 1448 1448 1449 1449 1450 1450 1451 1451 1451 1451 1451 1452 1453 1454 1454 1455 1455 1455 1456 1456 1457 1457 1458 1458 1459 1459 1459 1459
1429 1429 1430 1430 1431 1432 1433 1433 1434 1434 1434 1434 1433 1433 1432 1431 1431 1431 1431 1431 1432 1433 1434 1435 1436 1437 1438 1439 1440 1441 1443 1443 1444 1445 1446 1446 1447 1447 1447 1447 1448 1448 1448 1448 1448 1448 1449 1449 1450 1450 1450 1450 1451 1451 1452 1453 1453 1453 1454 1454 1454 1454 1455 1455 1456 1456 1457 1457 1457
1430 1431 1432 1432 1433 1434 1434 1434 1434 1434 1433 1433 1433 1432 1431 1431 1430 1430 1431 1432 1433 1434 1435 1436 1437 1438 1438 1439 1439 1440 1442 1443 1444 1445 1446 1446 1446 1447 1447 1447 1447 1447 1447 1447 1447 1447 1447 1448 1448 1449 1449 1449 1450 1450 1451 1451 1452 1452 1452 1452 1452 1453 1453 1453 1454 1454 1455 1455 1454
1432 1433 1433 1434 1434 1434 1434 1434 1433 1433 1432 1432 1431 1431 1430 1430 1430 1430 1431 1432 1433 1434 1436 1436 1437 1438 1438 1439 1439 1440 1441 1441 1442 1443 1444 1445 1445 1446 1446 1446 1446 1446 1446 1446 1446 1446 1446 1447 1447 1448 1448 1449 1449 1449 1449 1450 1450 1450 1450 1450 1451 1451 1451 1451 1452 1452 1452 1452 1452
1433 1434 1435 1435 1435 1434 1434 1433 1433 1432 1431 1431 1430 1430 1430 1429 1430 1430 1431 1433 1433 1435 1436 1437 1437 1438 1438 1439 1439 1440 1440 1440 1441 1441 1442 1442 1443 1443 1444 1444 1445 1445 1445 1445 1445 1445 1446 1446 1446 1447 1447 1448 1448 1448 1448 1448 1448 1448 1448 1448 1449 1449 1449 1449 1450 1450 1450 1450 1450
1435 1435 1435 1435 1435 1434 1433 1433 1432 1431 1431 1430 1430 1429 1429 1430 1430 1431 1432 1433 1434 1435 1436 1436 1437 1437 1438 1438 1439 1439 1439 1440 1440 1440 1441 1441 1441 1441 1442 1442 1443 1443 1444 1444 1444 1445 1445 1445 1445 1446 1446 1446 1446 1447 1447 1447 1447 1447 1447 1447 1447 1447 1447 1448 1448 1448 1448 1448 1448
1435 1435 1435 1435 1434 1434 1433 1433 1432 1431 1431 1430 1430 1430 1430 1430 1431 1431 1432 1433 1434 1435 1436 1436 1437 1437 1437 1438 1438 1439 1439 1439 1439 1440 1440 1440 1441 1441 1441 1441 1441 1441 1442 1442 1443 1443 1443 1444 1444 1444 1444 1445 1445 1445 1445 1445 1445 1445 1445 1445 1445 1446 1446 1446 1446 1446 1446 1446 1446
1435 1435 1435 1435 1434 1434 1434 1433 1432 1432 1431 1431 1431 1431 1431 1431 1432 1432 1433 1433 1434 1435 1435 1436 1436 1436 1437 1437 1438 1438 1439 1439 1439 1439 1439 1440 1440 1440 1440 1441 1441 1441 1441 1441 1441 1442 1442 1442 1442 1443 1443 1443 1443 1443 1443 1443 1443 1443 1443 1443 1443 1443 1443 1444 1444 1444 1444 1444 1444
1435 1435 1435 1435 1435 1435 1434 1434 1433 1433 1433 1433 1432 1433 1433 1433 1433 1433 1434 1434 1434 1434 1435 1435 1435 1436 1436 1437 1437 1438 1438 1438 1438 1439 1439 1439 1439 1439 1439 1440 1440 1440 1441 1441 1441 1440 1440 1440 1440 1441 1441 1441 1441 1441 1441 1441 1441 1441 1441 1441 1441 1441 1442 1442 1442 1442 1441 1441 1441
1436 1436 1436 1436 1436 1436 1435 1435 1434 1434 1434 1434 1434 1434 1434 1434 1434 1434 1435 1435 1435 1435 1435 1435 1435 1436 1436 1436 1437 1437 1437 1438 1438 1438 1438 1438 1438 1438 1438 1438 1438 1439 1439 1439 1439 1439 1438 1438 1438 1439 1439 1439 1439 1439 1439 1439 1439 1439 1439 1439 1439 1439 1439 1439 1439 1439 1439 1439 1439
1437 1437 1437 1437 1437 1436 1436 1436 1435 1435 1435 1435 1435 1435 1435 1435 1435 1435 1435 1435 1436 1436 1436 1436 1436 1436 1436 1436 1436 1436 1436 1437 1437 1437 1437 1437 1437 1437 1437 1437 1437 1437 1438 1438 1438 1437 1437 1437 1437 1437 1437 1437 1437 1437 1437 1437 1437 1437 1437 1437 1437 1437 1437 1437 1437 1437 1437 1437 1437
1438 1438 1438 1437 1437 1437 1436 1436 1436 1436 1435 1435 1435 1435 1435 1435 1436 1436 1436 1436 1436 1436 1436 1436 1436 1436 1436 1436 1436 1436 1436 1435 1435 1436 1436 1435 1435 1436 1436 1436 1436 1436 1436 1436 1436 1436 1436 1436 1435 1435 1435 1435 1435 1435 1435 1435 1435 1435 1435 1435 1435 1435 1435 1434 1434 1435 1435 1435 1435
1438 1438 1438 1438 1438 1437 1437 1437 1436 1436 1436 1435 1435 1435 1435 1436 1436 1436 1436 1436 1436 1436 1436 1436 1436 1436 1436 1436 1435 1435 1435 1435 1434 1434 1434 1434 1434 1434 1434 1434 1434 1434 1434 1434 1434 1434 1434 1434 1433 1433 1433 1433 1433 1433 1433 1433 1432 1432 1433 1433 1433 1432 1432 1432 1432 1432 1432 1432 1432
1439 1439 1438 1438 1438 1437 1437 1437 1436 1436 1436 1436 1436 1435 1435 1435 1435 1435 1435 1435 1435 1435 1435 1435 1435 1435 1435 1435 1435 1435 1434 1434 1434 1434 1433 1433 1433 1433 1433 1433 1433 1433 1432 1432 1432 1432 1432 1432 1432 1431 1431 1431 1430 1430 1430 1430 1430 1430 1430 1430 1430 1430 1430 1430 1430 1430 1430 1430 1430
1440 1440 1439 1439 1438 1438 1437 1437 1437 1436 1436 1436 1436 1435 1435 1435 1435 1435 1435 1435 1434 1434 1434 1434 1434 1434 1434 1434 1434 1434 1434 1433 1433 1433 1433 1433 1432 1432 1432 1432 1432 1431 1431 1431 1431 1430 1430 1430 1430 1430 1429 1429 1428 1428 1428 1428 1428 1428 1428 1428 1428 1428 1428 1428 1427 1428 1428 1428 1428
1441 1441 1440 1440 1439 1439 1438 1438 1437 1437 1436 1436 1436 1435 1435 1435 1435 1434 1434 1434 1434 1433 1433 1433 1433 1433 1433 1433 1433 1433 1432 1432 1432 1432 1431 1431 1431 1431 1431 1431 1430 1430 1430 1430 1429 1429 1429 1428 1428 1428 1427 1427 1426 1426 1426 1426 1425 1425 1425 1425 1425 1425 1425 1425 1425 1425 1425 1425 1425
1442 1441 1441 1441 1440 1440 1439 1439 1438 1438 1437 1437 1436 1436 1436 1435 1435 1434 1434 1434 1433 1433 1432 1432 1432 1431 1431 1431 1431 1431 1431 1430 1430 1430 1430 1430 1429 1429 1429 1429 1429 1428 1428 1428 1428 1427 1427 1427 1426 1426 1426 1425 1425 1424 1424 1423 1423 1423 1423 1423 1423 1423 1423 1422 1422 1422 1422 1422 1422
1442 1441 1441 1441 1440 1440 1439 1439 1438 1438 1438 1437 1437 1436 1436 1436 1435 1434 1434 1433 1433 1432 1432 1431 1431 1431 1430 1430 1429 1429 1428 1428 1428 1428 1428 1427 1427 1427 1427 1427 1427 1426 1426 1426 1426 1425 1425 1425 1424 1424 1424 1423 1423 1422 1422 1421 1421 1421 1420 1420 1420 1420 1420 1420 1420 1420 1420 1420 1420
1441 1441 1441 1440 1440 1439 1439 1438 1438 1438 1437 1437 1436 1436 1436 1435 1435 1434 1433 1433 1433 1432 1432 1431 1431 1430 1430 1429 1428 1428 1427 1427 1426 1426 1426 1425 1425 1425 1425 1425 1425 1424 1424 1424 1423 1423 1423 1423 1422 1422 1422 1421 1421 1420 1419 1419 1418 1418 1418 1417 1417 1417 1417 1417 1417 1417 1417 1417 1417
1441 1441 1440 1440 1439 1438 1438 1438 1437 1437 1436 1436 1435 1435 1434 1434 1433 1433 1433 1432 1432 1431 1431 1430 1430 1429 1429 1428 1428 1427 1426 1426 1425 1424 1424 1423 1423 1423 1422 1422 1422 1422 1422 1422 1421 1421 1421 1420 1420 1420 1419 1419 1418 1418 1417 1416 1416 1415 1415 1415 1415 1415 1414 1414 1414 1414 1414 1414 1414
1442 1441 1440 1440 1439 1438 1438 1437 1437 1436 1436 1435 1434 1434 1433 1433 1432 1432 1431 1431 1430 1430 1429 1429 1428 1428 1427 1427 1426 1426 1425 1425 1424 1423 1423 1422 1421 1421 1420 1420 1420 1420 1420 1419 1419 1419 1418 1418 1418 1417 1417 1416 1416 1415 1414 1414 1413 1413 1412 1412 1412 1412 1412 1412 1412 1411 1411 1411 1412
1442 1441 1441 1440 1439 1439 1438 1437 1437 1436 1435 1435 1434 1433 1432 1432 1431 1430 1430 1429 1429 1428 1428 1427 1427 1426 1426 1425 1425 1424 1424 1423 1423 1422 1422 1421 1420 1419 1419 1418 1418 1418 1418 1417 1417 1416 1416 1416 1415 1415 1414 1413 1413 1412 1411 1411 1410 1410 1409 1409 1409 1409 1409 1409 1409 1409 1409 1409 1409
1442 1442 1441 1440 1439 1439 1438 1438 1437 1436 1435 1435 1434 1433 1432 1431 1431 1430 1429 1428 1428 1427 1427 1426 1426 1425 1424 1423 1423 1423 1422 1421 1421 1421 1420 1419 1419 1418 1418 1417 1417 1416 1416 1415 1415 1414 1413 1413 1413 1412 1411 1411 1410 1409 1408 1408 1407 1407 1406 1406 1406 1406 1406 1406 1406 1406 1406 1406 1406
1442 1441 1440 1440 1439 1438 1438 1437 1436 1436 1435 1434 1433 1433 1432 1431 1431 1430 1429 1428 1428 1427 1426 1426 1425 1424 1423 1422 1421 1421 1420 1419 1419 1418 1418 1417 1417 1416 1416 1415 1415 1415 1415 1414 1413 1412 1412 1411 1410 1410 1409 1408 1407 1406 1406 1405 1404 1404 1403 1403 1403 1403 1403 1403 1403 1403 1403 1403 1403
1440 1439 1439 1438 1437 1437 1436 1436 1435 1434 1434 1433 1432 1432 1431 1431 1430 1429 1428 1428 1427 1426 1426 1425 1424 1423 1422 1421 1421 1420 1419 1418 1417 1416 1416 1415 1414 1414 1413 1413 1413 1413 1413 1412 1411 1411 1410 1409 1408 1407 1406 1405 1404 1404 1403 1402 1401 1401 1401 1400 1400 1400 1400 1400 1400 1400 1401 1401 1401
1438 1437 1436 1436 1435 1435 1434 1433 1433 1432 1431 1431 1430 1430 1429 1429 1428 1428 1427 1426 1425 1424 1424 1423 1423 1422 1421 1420 1420 1419 1418 1417 1416 1415 1414 1413 1413 1412 1411 1410 1410 1410 1410 1410 1409 1409 1408 1407 1407 1406 1405 1403 1402 1401 1400 1400 1399 1398 1398 1397 1397 1397 1397 1398 1398 1397 1398 1398 1398
1436 1435 1434 1434 1433 1432 1432 1431 1431 1430 1429 1429 1428 1428 1427 1426 1426 1425 1425 1424 1423 1422 1422 1421 1421 1420 1419 1419 1418 1417 1417 1416 1416 1415 1413 1412 1411 1410 1409 1408 1408 1407 1407 1407 1407 1406 1406 1405 1404 1404 1403 1402 1401 1399 1398 1397 1396 1396 1395 1395 1394 1394 1394 1395 1395 1395 1394 1395 1395
1435 1435 1434 1433 1432 1432 1431 1430 1430 1429 1428 1428 1427 1426 1425 1425 1424 1423 1423 1422 1421 1420 1419 1419 1418 1417 1416 1416 1415 1414 1414 1414 1414 1413 1412 1411 1410 1409 1408 1407 1406 1406 1405 1405 1404 1403 1403 1402 1402 1401 1401 1400 1399 1398 1397 1396 1394 1393 1393 1392 1392 1391 1391 1391 1391 1392 1391 1391 1392
1436 1435 1434 1434 1433 1432 1432 1431 1430 1429 1429 1428 1427 1426 1425 1425 1424 1423 1422 1421 1420 1419 1418 1417 1416 1415 1414 1413 1412 1411 1410 1410 1410 1410 1409 1409 1408 1407 1406 1406 1405 1404 1403 1403 1402 1401 1400 1400 1399 1398 1398 1397 1396 1396 1395 1394 1393 1391 1391 1390 1390 1389 1388 1388 1388 1388 1388 1388 1389
Wind_Speed
13 14 15 16 18 19 21 22 21 21 22 24 26 28 29 31 32 33 35 37 37 37 35 34 33 32 31 30 29 29 29 30 31 33 35 36 37 38 37 36 35 34 34 34 34 34 34 34 34 32 31 29 29 30 31 31 31 32 32 32 32 33 34 35 35 36 36 37 38
11 12 13 14 15 17 19 21 21 20 20 21 23 26 29 31 33 34 36 37 37 37 35 34 33 33 32 31 29 28 27 27 27 29 31 33 35 36 36 35 35 34 33 33 33 33 34 34 33 32 31 31 31 32 33 32 31 31 32 33 33 33 33 33 34 35 37 38 39
10 10 11 11 12 14 16 18 19 20 20 21 22 24 27 30 32 35 37 37 37 36 35 33 33 33 33 33 31 30 28 28 27 27 28 29 31 32 33 33 33 33 32 32 32 33 33 33 33 32 32 32 34 35 36 35 34 32 32 33 34 34 34 33 34 35 37 39 40
7 8 9 9 9 10 12 14 16 18 19 20 21 23 25 28 31 34 36 37 37 35 34 34 34 34 34 34 33 32 32 32 32 30 28 28 28 29 30 30 31 31 31 31 31 32 32 32 32 32 32 33 35 37 38 38 37 37 36 36 36 36 36 36 36 38 40 41 41
5 6 7 7 7 7 8 9 10 11 11 12 13 15 18 21 25 29 32 35 36 33 30 29 31 33 34 34 33 34 34 35 35 34 31 29 28 28 28 29 30 30 30 31 31 31 31 31 31 31 32 33 35 37 38 38 38 39 39 39 39 38 38 39 40 41 42 42 42
11 9 8 8 8 8 8 7 6 5 5 4 3 4 6 8 11 14 19 24 27 27 25 23 25 28 31 32 31 31 30 29 29 29 29 28 28 28 28 29 29 30 30 31 31 31 31 31 32 32 33 34 35 36 35 35 36 38 39 40 40 40 40 41 42 42 42 42 41
17 15 13 12 12 13 14 13 13 12 11 9 8 6 5 4 4 5 6 9 12 15 15 16 20 25 28 29 27 24 22 22 21 22 23 25 27 28 29 29 30 30 30 31 31 32 33 33 33 34 35 36 35 34 33 33 34 36 37 38 39 39 40 41 42 42 42 41 41
21 19 18 17 17 17 18 18 17 17 16 15 14 12 11 10 9 8 8 7 7 8 9 10 15 20 23 22 19 17 15 15 16 18 22 25 27 29 30 30 30 30 31 32 33 33 34 35 35 36 36 36 34 33 33 34 34 35 35 35 35 35 36 37 40 42 42 42 41
22 21 21 20 19 18 18 17 17 15 14 13 12 12 12 12 11 10 9 9 8 8 9 8 10 12 13 13 11 9 9 10 13 17 21 25 28 29 29 28 27 28 30 32 33 34 35 35 35 35 36 36 35 34 35 36 36 35 34 33 32 32 33 35 38 40 41 41 41
21 20 19 18 17 16 15 14 12 10 8 6 5 4 4 5 7 9 11 11 11 10 9 8 6 6 7 7 7 6 6 7 10 14 18 22 23 24 23 21 21 22 25 28 30 32 32 31 30 31 33 34 34 34 35 36 36 36 35 34 33 32 32 33 35 37 37 38 39
19 19 18 17 16 14 13 13 10 8 7 6 6 5 5 4 5 6 8 8 9 10 10 8 6 4 4 5 6 7 7 8 10 12 15 17 17 17 17 16 17 17 19 21 24 26 25 24 24 25 28 30 31 31 32 33 33 33 33 32 31 30 30 30 31 31 32 33 34
19 19 18 18 17 15 13 12 11 10 10 10 11 11 11 11 10 10 9 9 9 10 9 8 7 5 4 4 6 8 9 9 10 11 13 14 14 15 15 15 16 16 16 17 19 20 20 20 20 22 23 25 26 27 28 29 30 30 30 29 28 28 27 27 27 27 28 30 31
19 19 19 18 17 15 14 12 11 10 10 10 10 11 11 11 11 11 11 11 11 10 9 8 8 7 6 5 5 7 9 10 11 11 12 13 13 14 15 15 16 17 17 17 18 18 19 19 21 22 22 23 24 25 27 27 28 27 27 27 27 27 27 27 26 26 27 28 29
18 18 18 17 16 15 14 13 12 12 11 10 9 9 9 8 8 8 9 9 10 9 9 8 7 8 7 7 5 5 5 7 8 9 10 11 11 12 13 14 15 16 17 18 19 19 20 20 21 22 22 21 23 24 25 26 26 25 25 26 26 26 27 27 27 26 25 26 27
18 17 17 16 15 14 13 13 12 12 11 11 10 10 9 8 7 6 5 5 5 5 5 6 5 5 5 6 6 5 5 5 6 7 9 10 10 10 11 12 13 14 16 17 18 19 19 19 19 18 18 18 20 21 23 23 24 24 25 26 26 27 27 27 27 26 24 24 25
16 15 14 13 12 12 12 12 12 12 11 11 11 10 10 9 9 8 6 5 4 3 2 2 3 2 1 2 3 3 4 5 7 8 9 10 10 10 10 10 11 11 12 14 15 16 16 15 14 14 14 16 17 18 19 20 21 22 24 25 25 26 27 27 27 26 24 22 22
13 12 11 10 10 10 10 10 10 10 10 10 10 10 10 9 9 8 7 6 6 5 4 2 2 2 2 2 2 2 3 4 6 7 8 9 10 10 10 9 9 9 10 11 12 13 13 13 14 14 15 16 16 17 17 18 19 20 21 23 24 24 25 26 27 27 25 22 20
10 10 9 9 9 9 9 9 9 9 8 8 8 8 8 8 7 7 7 7 6 6 5 4 4 4 4 4 4 5 5 6 6 6 7 8 8 9 9 10 10 10 10 10 11 13 14 15 16 16 17 18 18 18 18 18 19 19 20 21 22 23 24 25 26 27 27 25 21
10 9 9 9 10 10 9 9 9 8 8 7 6 6 5 5 5 4 4 4 4 5 5 5 5 5 5 6 7 7 8 8 8 8 8 8 9 10 11 12 12 12 12 12 13 14 15 16 17 18 19 19 20 21 21 20 20 20 20 21 21 21 22 23 24 26 27 27 25
11 11 11 11 11 11 10 10 10 10 9 8 7 6 4 3 3 2 2 2 2 3 3 4 5 5 6 6 8 9 10 10 11 11 11 11 12 12 13 14 14 15 15 16 17 17 18 18 18 18 18 19 21 22 23 23 23 22 22 21 21 21 22 22 23 24 26 26 26
12 12 12 12 12 12 11 11 11 11 10 10 9 7 6 5 4 4 3 3 4 4 5 5 6 6 6 7 8 9 10 12 13 14 14 15 15 15 16 16 17 17 18 19 20 21 22 21 21 20 20 20 21 21 22 24 25 25 24 23 23 23 23 23 23 23 24 24 25
13 13 12 12 12 12 12 12 11 11 11 10 10 9 8 8 7 6 6 6 6 6 6 7 8 8 9 10 11 11 12 13 14 15 16 17 18 19 19 19 19 19 20 20 21 22 23 24 24 23 23 23 22 22 22 23 24 25 26 26 26 26 25 24 24 24 23 23 23
14 13 13 12 12 12 12 11 11 11 10 10 10 10 9 9 9 9 9 8 8 8 8 8 9 9 10 11 12 13 14 15 16 17 18 19 20 20 21 21 21 21 21 21 21 22 22 23 24 25 26 26 25 23 22 22 23 24 25 27 28 29 28 28 27 26 25 24 24
15 14 13 13 12 12 12 12 11 11 11 11 11 11 10 10 10 10 10 10 10 10 10 10 10 11 11 12 12 13 14 15 16 17 18 18 19 20 21 21 22 22 22 22 22 22 23 23 24 25 27 27 28 27 25 24 23 23 24 27 29 31 31 30 30 29 28 27 27
15 14 14 14 13 13 13 12 12 12 12 12 12 12 12 11 11 11 11 11 11 11 11 12 12 12 12 13 13 14 15 15 16 17 17 18 19 19 20 20 21 21 21 22 22 23 23 24 25 26 27 28 29 29 28 27 25 25 25 27 29 31 32 32 32 31 31 30 30
15 14 14 14 14 14 14 14 14 14 14 13 13 13 13 13 13 13 13 13 13 13 13 13 13 13 14 14 14 15 15 16 17 17 18 18 19 19 20 20 20 21 21 21 21 22 22 23 24 26 27 28 29 30 30 29 28 27 27 27 28 30 31 32 33 33 32 32 32
14 14 15 14 14 14 14 14 14 14 14 14 14 14 15 15 15 15 15 15 15 15 15 15 15 15 15 15 16 16 16 17 17 18 18 19 19 20 20 20 21 21 21 21 21 21 22 22 23 24 26 27 29 30 31 31 31 30 30 29 29 29 30 31 31 32 32 33 33
15 15 15 14 14 14 14 14 14 14 14 14 15 15 15 15 16 16 16 16 17 17 17 17 17 17 17 17 17 17 17 18 18 19 19 19 20 20 21 21 21 21 21 22 22 22 22 22 23 24 25 26 28 29 30 31 32 32 32 32 31 31 31 31 31 32 32 32 32
16 16 15 15 15 15 15 14 14 15 15 15 15 15 15 15 15 15 16 16 17 17 18 18 19 19 19 19 19 19 19 19 19 19 20 20 21 21 21 22 22 22 22 22 22 22 23 23 24 24 25 26 27 28 29 30 31 32 32 33 33 33 33 34 34 34 34 34 33
18 17 17 17 17 16 16 16 16 16 16 16 16 16 16 16 16 16 16 16 16 17 17 18 18 19 19 20 20 21 20 20 20 20 21 21 21 22 22 22 22 23 23 23 23 23 23 24 24 24 25 25 26 27 28 29 30 31 32 32 33 33 34 35 35 36 36 36 36
20 20 19 19 19 19 19 19 19 18 18 18 18 18 18 18 18 18 17 17 17 17 17 17 17 18 18 19 20 20 21 21 22 22 22 22 22 22 23 23 23 23 23 23 24 24 25 25 25 25 25 26 26 27 28 29 29 30 31 31 32 32 33 34 35 35 36 36 37
21 21 21 21 21 21 21 21 21 21 21 21 20 20 20 20 20 20 20 20 19 19 19 18 18 18 18 18 19 19 20 21 21 22 23 23 24 24 24 23 23 23 23 23 24 24 25 26 26 26 27 27 27 27 28 28 29 30 30 31 31 31 32 32 33 33 34 35 36
21 21 21 22 22 22 22 22 22 22 22 22 22 22 22 22 22 22 22 22 22 22 22 22 22 21 21 21 20 20 20 20 21 22 22 23 24 24 25 25 24 24 24 24 24 24 25 25 26 27 27 28 29 29 29 29 29 30 30 30 31 31 31 31 32 32 33 33 34
21 21 21 22 22 22 22 22 23 23 23 23 23 23 23 24 24 24 24 24 24 24 25 25 24 24 24 24 23 23 22 22 22 22 22 23 23 24 24 25 25 25 25 25 25 25 25 25 26 26 27 28 29 30 30 30 30 30 30 30 30 30 30 31 31 31 32 32 33
21 22 22 22 22 22 22 23 23 23 23 23 23 24 24 24 24 25 25 25 25 25 25 25 26 26 26 26 26 25 25 25 24 24 24 24 24 24 24 24 24 24 25 25 26 26 26 26 26 26 27 28 29 30 31 32 32 32 32 31 31 31 30 30 31 31 31 31 32
23 23 23 23 23 23 23 24 24 24 24 24 24 24 24 24 24 25 25 25 25 25 25 25 26 26 26 26 27 27 27 27 27 27 27 26 26 26 26 25 25 24 24 25 25 26 26 26 26 26 27 27 28 30 31 32 32 33 33 33 32 32 31 31 31 31 31 31 31
25 25 25 25 25 25 25 25 25 25 25 25 25 25 25 25 25 25 25 26 26 26 25 25 25 25 26 26 26 27 27 27 28 28 28 28 29 29 28 28 27 26 25 25 25 25 26 26 27 27 27 28 28 29 30 31 32 33 33 33 33 33 32 32 31 31 31 31 31
27 27 27 27 27 27 27 27 27 27 27 27 27 26 26 26 26 26 26 26 26 26 27 26 26 26 26 26 26 26 26 26 27 27 28 29 29 30 30 30 29 28 27 26 26 26 26 26 26 26 27 28 29 30 30 31 32 32 33 33 34 33 33 32 32 32 32 32 32
28 28 28 29 29 29 29 29 29 29 29 29 29 29 29 29 29 28 28 28 28 28 28 28 28 27 27 27 27 26 26 25 25 25 26 27 28 28 29 30 30 30 29 28 28 27 27 26 26 26 26 27 28 29 30 31 32 33 33 33 34 34 33 33 33 32 32 32 32
27 28 28 29 29 29 29 30 30 30 30 30 30 30 31 31 31 31 30 30 30 30 31 30 30 30 30 29 29 29 28 27 25 25 25 25 25 26 27 28 29 29 29 29 29 29 28 27 26 26 25 26 26 27 28 30 31 32 33 33 34 34 34 34 33 33 33 32 32
26 26 27 27 27 27 28 28 28 29 29 29 29 30 30 30 31 31 31 31 31 32 32 32 32 32 32 32 32 32 32 31 29 28 26 26 25 25 25 26 26 27 27 27 28 28 29 28 28 27 26 25 25 26 26 28 29 31 32 33 33 34 34 34 34 34 33 33 32
Wind_Direction
232 235 237 237 237 237 236 235 233 232 230 227 225 223 222 222 223 224 226 226 224 223 224 228 233 236 238 239 240 240 240 239 237 236 234 234 235 237 238 239 240 241 243 244 245 245 244 244 243 241 240 240 240 241 243 245 247 247 246 246 249 253 257 259 260 261 260 259 258
226 231 234 236 236 237 237 238 239 239 239 237 235 233 230 227 225 224 224 224 225 226 228 231 235 238 239 241 241 243 244 244 242 240 238 237 237 238 240 241 243 244 245 245 245 245 244 243 241 241 240 241 241 243 245 247 249 249 247 246 248 252 256 260 263 264 264 263 261
228 232 234 235 237 239 241 243 245 247 248 248 247 244 240 235 230 226 224 225 227 230 231 232 234 236 238 240 241 243 245 247 247 244 241 238 238 238 240 241 242 243 243 243 243 243 243 242 241 239 238 239 240 242 244 247 248 247 244 243 244 247 251 254 257 260 262 262 260
226 230 229 230 234 240 245 247 249 249 249 249 249 248 245 240 234 230 227 227 228 228 228 229 231 234 236 237 239 242 245 248 249 247 244 240 238 238 239 240 241 241 241 240 240 241 242 241 240 239 238 238 240 242 243 244 244 243 241 240 240 242 245 247 250 254 257 258 258
171 195 205 206 208 216 228 237 240 240 239 240 242 244 243 240 237 233 230 228 226 222 217 216 222 228 232 234 236 238 241 242 244 243 242 240 238 237 238 238 239 239 239 239 239 239 240 240 239 239 239 240 242 243 242 241 241 240 240 240 240 241 243 245 249 252 255 256 257
118 130 148 164 168 165 160 159 161 162 167 174 193 214 225 228 229 227 225 224 221 215 206 200 206 217 225 229 231 231 230 228 226 228 231 235 236 236 236 236 237 237 237 237 237 237 237 237 238 238 240 242 243 242 241 239 240 241 243 244 244 245 246 247 250 253 255 256 256
106 112 121 134 138 134 129 126 125 124 120 115 110 111 116 123 127 140 162 181 189 190 187 185 194 208 220 227 228 227 223 220 216 213 215 223 230 234 234 234 234 235 235 236 236 236 236 236 237 238 240 242 242 241 239 239 240 242 243 244 244 245 246 248 251 253 253 254 254
97 103 108 114 115 115 115 116 114 109 104 99 98 100 103 104 100 100 105 116 126 130 135 153 184 205 218 225 226 223 220 220 218 211 209 217 224 228 230 231 232 233 234 234 235 235 235 235 236 237 239 241 241 241 240 241 241 242 242 242 241 241 242 244 248 251 251 251 250
83 88 95 101 104 105 107 107 104 98 92 88 87 88 89 90 89 87 86 90 95 96 104 128 170 197 211 217 216 212 211 213 213 211 212 217 221 225 228 230 231 231 231 233 234 235 236 236 237 237 238 239 241 243 243 244 245 246 247 247 247 246 246 246 247 249 250 249 249
71 76 84 92 96 101 104 106 106 101 96 91 86 74 67 74 89 91 89 91 100 108 115 128 153 183 204 214 216 217 217 216 214 215 217 221 225 229 234 237 237 235 233 233 234 236 237 239 240 239 238 239 242 244 246 248 249 251 252 253 253 253 253 251 250 250 250 250 249
62 66 71 77 82 90 101 110 119 128 138 148 160 173 190 202 171 137 119 113 117 122 126 130 133 150 185 207 216 221 223 222 221 223 226 231 235 240 244 247 247 245 241 238 237 237 239 242 243 241 240 240 243 246 249 250 251 251 251 252 252 253 253 253 253 252 252 252 251
53 56 61 65 68 75 85 98 111 124 136 144 151 160 169 174 167 152 137 130 124 124 127 130 130 132 150 192 216 224 226 226 227 230 234 238 241 243 244 246 248 248 247 245 242 242 243 245 245 244 242 242 244 246 248 248 246 244 244 244 245 247 249 250 251 251 251 251 252
47 49 53 56 59 63 68 74 81 89 98 106 114 124 134 141 143 139 133 128 122 120 123 133 143 147 152 170 206 227 234 236 237 238 240 241 242 243 244 246 249 251 251 250 248 247 247 247 246 245 244 244 245 246 246 245 242 239 238 238 239 242 244 247 248 249 250 251 252
45 45 46 48 50 53 55 58 60 62 63 66 69 75 83 93 104 111 114 113 110 110 114 126 140 149 153 155 165 190 219 234 240 242 243 243 243 245 246 248 250 250 250 248 247 246 246 246 246 247 247 248 248 248 248 247 246 245 244 244 244 244 245 247 249 251 253 255 257
44 42 42 42 43 45 47 50 51 52 51 50 49 47 47 48 52 60 68 74 80 89 99 107 113 126 142 151 154 162 179 202 220 230 235 239 240 243 248 252 253 250 246 242 241 242 244 245 247 251 254 256 256 255 255 255 256 256 256 255 254 253 252 251 252 254 257 260 262
44 43 42 41 42 43 45 47 47 47 45 44 42 39 38 36 35 34 30 25 19 18 37 71 80 83 107 152 164 173 186 199 208 216 223 231 236 242 249 258 264 262 254 246 242 241 242 243 246 251 258 262 264 264 265 266 266 266 266 265 264 261 259 256 254 254 257 261 263
50 48 47 46 47 48 48 49 49 47 43 40 37 34 33 31 30 28 24 17 7 355 341 329 330 339 336 309 270 258 252 240 228 224 224 228 233 239 247 257 267 272 269 260 252 248 247 247 248 250 255 260 264 267 269 270 271 271 270 270 268 266 263 259 256 255 255 257 260
58 57 55 54 53 53 53 53 52 50 46 41 36 31 28 26 25 24 21 15 7 357 344 330 320 318 318 312 297 285 280 276 267 258 252 248 247 248 253 258 265 269 270 265 259 256 255 255 254 254 255 257 260 263 265 266 267 268 268 268 267 266 264 262 260 258 257 256 255
61 57 54 51 49 48 48 48 48 47 46 43 39 33 27 21 17 14 11 7 1 351 341 331 324 317 312 307 300 292 286 282 279 275 270 266 263 261 261 263 265 265 263 259 256 256 258 260 261 261 260 260 260 261 262 263 264 265 265 266 266 265 264 264 263 263 262 260 258
53 48 44 41 39 37 37 37 37 36 36 35 32 28 22 14 2 348 334 319 309 303 304 304 306 306 305 300 296 292 288 285 281 277 273 269 265 263 262 263 264 264 261 257 254 254 257 261 265 268 270 269 267 265 265 265 265 265 265 266 267 267 266 266 266 267 268 268 267
41 37 34 30 27 26 25 25 24 24 24 22 20 17 12 4 353 340 322 306 287 274 265 264 267 271 274 276 278 280 282 281 280 277 275 272 269 267 265 265 266 267 267 263 259 255 254 256 260 266 272 277 277 274 271 269 268 268 267 267 268 269 269 269 269 270 272 274 275
33 29 26 22 19 17 15 13 12 11 10 9 8 6 3 358 352 345 337 326 313 298 283 272 264 260 258 258 258 259 261 264 267 269 270 270 270 269 269 269 269 271 273 272 267 261 256 253 253 257 264 272 276 278 277 274 273 271 270 270 269 269 270 270 271 271 273 275 277
27 24 21 17 14 11 8 5 2 359 357 355 354 353 351 349 346 343 338 333 327 319 310 300 290 282 274 267 261 257 256 257 258 259 261 263 264 266 267 268 269 269 271 272 272 269 263 257 254 254 257 263 267 271 273 274 274 273 271 269 269 269 269 270 271 271 271 272 273
22 20 17 14 10 7 4 360 356 352 349 347 345 343 340 337 335 332 329 327 324 321 317 313 308 303 297 290 283 277 272 268 266 264 264 263 264 265 265 266 266 267 267 268 269 269 268 265 261 259 259 260 263 265 267 268 270 269 266 264 263 264 266 268 270 271 270 270 269
19 16 13 11 8 5 0 357 353 350 348 345 342 339 335 332 328 325 322 319 316 313 311 309 307 305 303 300 297 294 290 285 282 278 276 274 272 271 270 270 269 269 268 268 268 268 269 269 268 266 265 264 265 266 267 268 267 265 262 258 257 258 261 264 266 268 268 268 268
17 14 12 10 7 3 359 357 354 351 348 345 341 338 334 331 328 325 322 319 315 312 309 307 304 301 299 298 297 296 294 292 290 288 286 284 282 281 279 277 276 274 273 272 271 270 270 269 270 270 269 269 268 268 268 268 268 267 264 260 257 257 258 260 262 263 263 264 264
19 16 14 10 7 4 1 358 355 352 348 344 341 338 335 332 329 327 324 322 319 316 313 310 306 302 299 297 295 293 292 291 290 289 288 288 287 286 285 284 282 281 279 278 276 274 272 271 270 271 271 271 270 269 268 268 267 267 266 264 262 261 260 261 261 261 260 260 260
24 21 18 14 11 8 5 1 358 354 351 348 345 342 338 334 331 328 325 323 320 318 315 313 310 307 304 302 299 296 294 292 290 289 287 287 286 285 285 285 285 284 283 282 281 279 276 274 273 272 272 272 272 271 270 269 268 267 266 265 264 264 263 264 264 263 262 261 260
25 23 20 17 15 12 9 6 3 360 357 354 351 347 344 340 336 332 329 325 322 320 317 315 313 311 310 308 305 302 300 297 295 292 290 287 286 284 283 283 283 283 283 283 282 281 280 278 276 275 274 273 273 273 272 272 271 269 268 267 266 265 264 264 264 264 265 264 264
20 19 17 15 13 11 9 7 5 3 0 357 354 351 348 345 341 338 335 332 329 326 323 320 318 316 314 312 309 307 305 304 301 298 295 292 289 287 285 283 282 282 281 281 281 281 280 280 278 277 276 274 274 273 273 272 272 271 270 269 268 267 266 265 264 264 264 264 265
14 12 11 9 7 6 5 3 2 360 358 355 353 350 348 346 344 342 339 338 335 333 329 326 323 321 318 315 313 311 309 307 305 303 300 298 295 292 289 287 285 284 283 282 281 280 280 279 279 278 277 276 275 274 273 272 272 271 271 271 270 269 268 267 266 265 264 264 264
8 7 5 4 3 1 360 358 357 355 353 352 349 348 346 344 343 341 339 337 335 333 331 329 327 324 322 319 317 314 312 310 308 306 304 302 300 297 295 292 290 288 286 285 283 281 280 279 279 278 278 277 276 275 274 273 272 271 271 271 270 270 270 269 268 267 266 265 265
4 3 1 360 359 358 356 355 353 351 350 348 346 345 343 342 340 338 336 335 333 332 331 329 328 326 324 322 320 318 316 314 312 309 307 305 303 300 298 296 294 293 291 289 287 285 283 281 280 279 278 277 276 276 275 274 273 272 271 271 270 270 269 269 269 269 268 267 266
0 359 358 357 355 354 353 352 350 348 347 345 344 343 341 340 338 337 335 334 333 332 330 329 328 326 324 322 321 319 318 316 314 312 310 308 305 303 301 299 297 296 295 293 291 289 287 285 283 281 279 278 277 276 276 275 274 273 272 271 271 270 269 269 269 269 269 269 268
357 356 355 354 352 351 350 349 347 346 344 343 342 341 340 339 337 336 335 333 332 331 330 328 327 325 323 322 320 319 318 316 315 313 312 310 308 306 303 301 300 299 297 296 294 293 291 289 287 285 283 281 279 277 277 276 275 274 274 273 272 270 269 269 268 268 268 268 268
357 355 354 353 351 350 349 347 346 344 343 342 341 340 339 338 337 336 334 333 331 330 329 327 326 325 323 322 321 320 319 317 316 314 313 311 310 308 306 304 302 301 300 298 296 294 293 291 290 289 287 284 282 280 278 277 276 275 274 274 273 271 270 269 268 268 268 267 267
358 357 356 354 353 351 350 348 347 346 345 344 343 341 340 339 338 336 334 333 331 330 328 327 326 325 324 323 322 321 320 318 317 315 314 312 311 309 307 306 304 303 302 301 299 297 294 293 292 291 290 288 286 284 282 279 278 276 275 274 273 272 271 270 269 268 267 266 266
0 359 357 356 355 353 352 350 349 348 347 346 345 343 342 340 339 338 337 336 334 332 330 328 328 326 325 323 322 321 320 319 317 316 314 313 311 310 309 307 306 305 304 303 302 300 297 295 293 292 291 290 289 287 285 283 281 278 277 275 274 273 271 270 269 268 266 265 265
0 359 357 356 354 353 352 350 349 348 347 346 344 343 341 341 340 339 338 337 336 334 332 330 329 328 327 325 323 322 320 319 318 316 314 312 311 310 308 307 306 305 305 304 303 302 300 298 296 294 292 290 289 288 287 285 283 281 279 277 275 274 272 271 269 268 266 264 263
360 358 356 354 353 352 350 349 348 347 346 344 343 341 340 340 339 338 337 336 335 333 332 331 330 329 328 327 325 323 322 320 319 317 315 313 311 309 308 306 305 304 304 303 303 302 302 300 299 297 294 292 290 288 287 286 284 282 281 279 277 276 274 272 270 268 266 264 262
358 356 355 354 352 351 350 349 347 346 345 344 342 341 340 339 337 336 335 334 333 332 331 330 329 328 328 327 325 324 323 322 321 320 318 316 314 311 309 307 305 304 302 301 300 300 300 300 300 299 297 295 292 290 288 286 284 282 281 279 278 276 275 273 271 269 267 264 262